Overview Statistics Trail Chart Weather Telemetry Raw packets
 

This is the latest recevied weather packets stored in our database for station/object K3RUP-1. If no packets are shown the sender has not sent any weather packets the latest 10 day(s).

<< 32 33 34 35 36 37 38 >>
Time Temp. Humidity Pressure Rain* Wind** Luminosity Snow
1788473175 29.44° C 79% 1012.2 hPa 0 mm - 63 W/m² -
1788472875 30° C 78% 1012.3 hPa 0 mm - 50 W/m² -
1788472574 30° C 77% 1012.4 hPa 0 mm - 79 W/m² -
1788472268 30.56° C 76% 1012.6 hPa 0 mm - 55 W/m² -
1788471962 30.56° C 76% 1012.6 hPa 0 mm - 60 W/m² -
1788471657 30.56° C 76% 1012.6 hPa 0 mm - 60 W/m² -
1788471352 30.56° C 76% 1012.4 hPa 0 mm - 62 W/m² -
1788471048 30.56° C 75% 1012.1 hPa 0 mm - 59 W/m² -
1788470744 30.56° C 73% 1012.4 hPa 0 mm - 105 W/m² -
1788470439 30.56° C 73% 1012.5 hPa 0 mm - 55 W/m² -
1788470134 30.56° C 73% 1012.3 hPa 0 mm - 69 W/m² -
1788469831 30.56° C 72% 1012.4 hPa 0 mm - 55 W/m² -
1788469530 31.11° C 70% 1012.5 hPa 0 mm - 81 W/m² -
1788469221 31.11° C 70% 1012.4 hPa 0 mm - 49 W/m² -
1788468920 30.56° C 70% 1012.6 hPa 0 mm - 200 W/m² -
1788468615 30.56° C 73% 1012.6 hPa 0 mm - 349 W/m² -
1788468311 30.56° C 73% 1012.8 hPa 0 mm - 210 W/m² -
1788468006 30.56° C 72% 1012.9 hPa 0 mm - 53 W/m² -
1788467702 30.56° C 71% 1012.7 hPa 0 mm - 76 W/m² -
1788467400 30.56° C 72% 1012.8 hPa 0 mm - 50 W/m² -
1788467097 30.56° C 73% 1012.8 hPa 0 mm - 65 W/m² -
1788466791 30.56° C 74% 1013 hPa 0 mm - 93 W/m² -
1788466486 30.56° C 72% 1013.1 hPa 0 mm - 98 W/m² -
1788466185 30° C 73% 1013.2 hPa 0 mm - 91 W/m² -
1788465881 30.56° C 73% 1013.4 hPa 0 mm - 93 W/m² -

* Rain latest hour (hover to see other rain measurements)
** Current wind speed in m/s (hover to see current wind gust speed)